[[{"header":{"parameterUnit":"m.s-1","parameterCategory":1,"la1":30.2991,"la2":30.254,"lo1":-89.0895,"lo2":-89.0444,"dy":0.0017,"dx":0.0017,"nx":28,"ny":28,"refTime":"2025-07-12T21:00:00:Z","depth":0,"parameterNumber":2,"parameterNumberName":"U-component_of_WINDS"},"data":[0,0,0,0,0,0,0,0,0,0,0,0,0,0,0,0,0,0,0,0,0,0,0,0,0,0,0,0,0,0,0,0,0,0,0,0,0,0,0,0,0,0,0,0,0,0,0,0,0,0,0,0,0,0,0,0,0,0,1.1105,1.1106,0,1.1212,1.1214,1.1215,1.1228,1.1227,1.1226,1.1225,1.1336,1.134,1.1344,0,0,0,0,0,0,0,0,0,0,0,0,0,1.091,1.0914,1.1105,1.1106,1.1107,1.1212,1.1214,1.1215,1.1229,1.1227,1.1226,1.1225,1.1335,1.134,1.1344,0,0,0,0,0,0,0,0,0,0,0,0,0,1.1004,1.0915,1.1104,1.1127,1.113,1.1212,1.1214,1.1215,1.1229,1.1227,1.1226,1.1224,1.1334,1.1339,1.1345,1.1413,0,0,1.1363,1.1366,0,0,0,0,0,0,0,0,1.0999,1.1011,1.1122,1.1125,1.1129,1.1205,1.1186,1.1282,1.1229,1.1191,1.1225,1.1224,1.1294,1.1303,1.1327,1.1418,1.1423,1.1364,1.1367,1.137,1.1371,0,0,0,0,0,0,0,1.0992,1.1007,1.1147,1.1124,1.1128,1.1131,1.1143,1.1204,1.125,1.1195,1.1196,1.1208,1.1296,1.1321,1.133,1.1424,1.1363,1.1369,1.1372,1.1375,1.1574,1.1576,0,0,0,0,0,0,1.0982,1.1001,1.1144,1.1151,1.1059,1.1136,1.1149,1.1182,1.125,1.1258,1.1209,1.1208,1.1312,1.1323,1.1333,1.1416,1.137,1.1375,1.1379,1.1572,1.1574,1.1576,0,0,0,0,0,0,1.0977,1.0994,1.114,1.1076,1.1095,1.1141,1.1178,1.1185,1.1211,1.1261,1.1269,1.1227,1.1311,1.1325,1.1392,1.142,1.1378,1.1383,1.157,1.1573,1.1575,1.1581,0,0,0,0,0,0,1.0972,1.0993,1.1019,1.1077,1.1098,1.1197,1.118,1.1189,1.1221,1.1221,1.1279,1.1288,1.1311,1.1383,1.1398,1.1427,1.1388,1.1568,1.1571,1.1574,1.1579,1.1584,1.1588,0,0,0,0,0,1.0965,1.1017,1.102,1.1037,1.1132,1.1198,1.1211,1.1236,1.1223,1.125,1.1281,1.1286,1.1414,1.139,1.1407,1.1438,1.1566,1.157,1.1574,1.1577,1.1583,1.1588,0,0,0,0,0,0,1.0962,1.1025,1.1029,1.1102,1.1145,1.1201,1.1235,1.1242,1.129,1.1287,1.1317,1.133,1.1396,1.1424,1.1396,1.1506,1.1489,1.1496,1.1485,1.1491,1.1496,1.1488,1.1393,0,0,0,0,0,1.097,1.1019,1.1071,1.113,1.1151,1.1189,1.1219,1.1235,1.128,1.1298,1.1335,1.1379,1.1429,1.1462,1.1511,1.1583,1.1595,1.1612,1.1617,1.162,1.1626,1.1665,1.1673,1.1589,1.1589,1.1589,0,0,1.0987,1.1027,1.1056,1.113,1.1165,1.1214,1.1204,1.1257,1.1294,1.1307,1.1372,1.14,1.1451,1.152,1.1553,1.1546,1.1652,1.1625,1.1628,1.1632,1.167,1.1678,1.1684,1.1592,1.1591,1.1591,0,0,1.1043,1.1078,1.1131,1.1165,1.1218,1.1243,1.1255,1.131,1.1329,1.1394,1.1404,1.1448,1.1534,1.157,1.1599,1.1666,1.1671,1.1681,1.1705,1.1742,1.1749,1.1755,1.1777,1.1785,1.1687,1.1687,1.1687,0,1.1057,1.1132,1.1157,1.1209,1.124,1.1253,1.1306,1.1338,1.1404,1.1426,1.1417,1.1524,1.1559,1.1636,1.1652,1.1676,1.169,1.1675,1.1746,1.1752,1.1758,1.178,1.1788,1.1688,1.1688,1.1687,1.1687,0,1.1146,1.1197,1.1233,1.1296,1.1331,1.1384,1.1416,1.1449,1.1461,1.1486,1.1552,1.1595,1.1652,1.1671,1.1684,1.1749,1.1743,1.174,1.1723,1.1766,1.1787,1.1796,1.1689,1.1688,1.1688,1.1688,0,0,1.1205,1.1279,1.1292,1.1319,1.1377,1.1417,1.1469,1.1524,1.1551,1.1596,1.164,1.1711,1.1707,1.1741,1.1757,1.179,1.1838,1.1782,1.1784,1.179,1.1912,1.1913,1.1923,1.1842,1.1844,1.1845,1.1907,0,1.1267,1.136,1.1383,1.1462,1.1509,1.152,1.1565,1.1605,1.163,1.1673,1.17,1.175,1.1742,1.1762,1.1795,1.1825,1.1863,1.1821,1.1882,1.1884,1.1869,1.1934,1.1937,1.1994,1.1915,1.1917,1.1918,0,1.1352,1.1397,1.148,1.153,1.1551,1.1591,1.1642,1.1683,1.1728,1.1744,1.178,1.1793,1.1846,1.1827,1.1901,1.1872,1.1898,1.1917,1.192,1.1926,1.1904,1.1942,1.2012,1.2021,1.1931,1.193,1.1929,0,1.1385,1.1467,1.1527,1.155,1.161,1.1638,1.1664,1.1707,1.1738,1.1783,1.1803,1.1854,1.1882,1.192,1.1946,1.193,1.2018,1.2001,1.2032,1.2031,1.205,1.2048,1.2125,1.2067,1.2067,1.2067,1.2067,0,1.1452,1.1502,1.1542,1.1579,1.1635,1.1661,1.1716,1.1742,1.178,1.1822,1.1836,1.1874,1.1906,1.1949,1.197,1.2027,1.204,1.2054,1.2058,1.2052,1.205,1.207,1.2067,1.2069,1.2069,1.2068,1.2068,0,1.1499,1.1528,1.1594,1.1644,1.1658,1.1697,1.174,1.1776,1.18,1.1853,1.1867,1.1905,1.1956,1.1986,1.2051,1.2064,1.2128,1.2131,1.2112,1.2114,1.2143,1.214,1.2235,1.2248,1.2182,1.2183,1.2183,0,1.154,1.1578,1.1632,1.1661,1.1687,1.1733,1.1764,1.179,1.1822,1.1875,1.1904,1.1956,1.1999,1.208,1.2113,1.2163,1.2167,1.2197,1.2174,1.2166,1.2166,1.2164,1.2167,1.22,1.2201,1.2202,1.2202,0,1.1608,1.162,1.1664,1.1713,1.1749,1.1789,1.1829,1.1851,1.1884,1.1919,1.197,1.2003,1.2068,1.2119,1.2171,1.2198,1.2205,1.2208,1.2218,1.2212,1.2199,1.2206,1.2122,1.2206,1.2206,1.2206,1.2205,1.2205,1.1653,1.1687,1.173,1.1778,1.181,1.1846,1.1882,1.191,1.1953,1.2008,1.202,1.2075,1.2117,1.2187,1.2215,1.2257,1.2252,1.2266,1.227,1.2273,1.2273,1.2192,1.2267,1.2267,1.2267,1.2267,1.2267,0,1.1722,1.1749,1.1793,1.1847,1.1885,1.1887,1.1931,1.1962,1.2009,1.2048,1.2089,1.2148,1.2196,1.2233,1.2283,1.231,1.2314,1.2322,1.232,1.2326,1.2276,1.2262,1.2317,1.2317,1.2317,1.2317,1.2317,1.2317,1.1762,1.1819,1.1836,1.1909,1.1936,1.1989,1.2013,1.2046,1.2077,1.2141,1.2182,1.2205,1.2242,1.2294,1.2339,1.2348,1.2366,1.2373,1.2383,1.2335,1.233,1.2324,1.2312,1.2377,1.2377,1.2429,1.243,1.243]},{"header":{"parameterUnit":"m.s-1","parameterCategory":1,"la1":30.2991,"la2":30.254,"lo1":-89.0895,"lo2":-89.0444,"dy":0.0017,"dx":0.0017,"nx":28,"ny":28,"refTime":"2025-07-12T21:00:00:Z","depth":0,"parameterNumber":3,"parameterNumberName":"V-component_of_WINDS"},"data":[0,0,0,0,0,0,0,0,0,0,0,0,0,0,0,0,0,0,0,0,0,0,0,0,0,0,0,0,0,0,0,0,0,0,0,0,0,0,0,0,0,0,0,0,0,0,0,0,0,0,0,0,0,0,0,0,0,0,4.0586,4.0586,0,4.056,4.056,4.0559,4.0478,4.0476,4.0474,4.0472,4.0447,4.0448,4.0449,0,0,0,0,0,0,0,0,0,0,0,0,0,4.0567,4.0568,4.0586,4.0586,4.0586,4.056,4.056,4.0559,4.0478,4.0476,4.0473,4.0471,4.0446,4.0447,4.0449,0,0,0,0,0,0,0,0,0,0,0,0,0,4.0562,4.0568,4.0586,4.0542,4.0538,4.056,4.056,4.0559,4.0478,4.0476,4.0473,4.047,4.0446,4.0447,4.0449,4.0512,0,0,4.0453,4.0454,0,0,0,0,0,0,0,0,4.0562,4.0562,4.0549,4.0545,4.054,4.0519,4.0543,4.0544,4.0479,4.0501,4.0472,4.0469,4.0473,4.0472,4.0473,4.0511,4.051,4.0454,4.0454,4.0455,4.0456,0,0,0,0,0,0,0,4.0563,4.0563,4.0576,4.0549,4.0543,4.0524,4.052,4.0543,4.0503,4.0499,4.0493,4.0491,4.047,4.0472,4.0472,4.051,4.0454,4.0455,4.0456,4.0456,4.0597,4.06,0,0,0,0,0,0,4.0569,4.0564,4.0577,4.0575,4.0545,4.0526,4.0522,4.0529,4.0502,4.0495,4.0493,4.0487,4.0471,4.047,4.0471,4.0542,4.0455,4.0457,4.0457,4.0594,4.0598,4.0601,0,0,0,0,0,0,4.0569,4.0571,4.0578,4.0568,4.0567,4.0529,4.0538,4.053,4.0531,4.0498,4.049,4.0502,4.0469,4.0469,4.0502,4.054,4.0457,4.0459,4.0591,4.0595,4.0599,4.0686,0,0,0,0,0,0,4.0569,4.0571,4.0595,4.0569,4.0568,4.061,4.054,4.0531,4.0534,4.0526,4.0504,4.0498,4.0466,4.05,4.0504,4.054,4.046,4.0587,4.0593,4.0598,4.0679,4.0693,4.0704,0,0,0,0,0,4.0568,4.0621,4.0597,4.0599,4.0597,4.0612,4.0611,4.0573,4.0537,4.056,4.0539,4.0499,4.0536,4.0505,4.0508,4.0545,4.0585,4.0591,4.0598,4.0674,4.069,4.0703,0,0,0,0,0,0,4.0653,4.0617,4.0589,4.0635,4.0627,4.0598,4.0626,4.0592,4.0594,4.0587,4.054,4.0536,4.0576,4.0564,4.053,4.0605,4.0554,4.0561,4.0611,4.0626,4.0637,4.0639,4.0461,0,0,0,0,0,4.0677,4.0692,4.066,4.0703,4.0701,4.0665,4.067,4.0641,4.0631,4.0628,4.0608,4.0601,4.061,4.0618,4.0625,4.0678,4.0671,4.0706,4.0718,4.0728,4.0734,4.076,4.0774,4.0622,4.0622,4.0622,0,0,4.0727,4.0709,4.0721,4.072,4.071,4.0727,4.0662,4.0683,4.0694,4.0631,4.066,4.0647,4.0635,4.0678,4.0696,4.067,4.0775,4.0736,4.0744,4.0745,4.0768,4.0783,4.0795,4.0626,4.0625,4.0625,0,0,4.0825,4.0814,4.0848,4.084,4.0826,4.0801,4.081,4.0786,4.0774,4.0803,4.0755,4.0769,4.0787,4.078,4.0779,4.0875,4.0837,4.0879,4.0941,4.0967,4.0979,4.099,4.1022,4.1035,4.0885,4.0886,4.0886,0,4.0889,4.0911,4.087,4.0893,4.0894,4.0837,4.087,4.0865,4.0854,4.0856,4.0827,4.0847,4.0835,4.0875,4.0899,4.09,4.0908,4.088,4.0981,4.0991,4.1,4.103,4.1043,4.0891,4.089,4.0889,4.0889,0,4.0989,4.1006,4.1035,4.1025,4.1029,4.1058,4.1021,4.103,4.1002,4.0981,4.1011,4.0995,4.0997,4.1005,4.0978,4.1041,4.1025,4.0989,4.0936,4.102,4.1048,4.1059,4.0898,4.0896,4.0894,4.0893,0,0,4.1139,4.1106,4.1118,4.1112,4.1092,4.1104,4.1131,4.1132,4.114,4.1135,4.1155,4.1172,4.1138,4.1137,4.1109,4.1132,4.1207,4.1093,4.1092,4.1113,4.1274,4.13,4.1314,4.1183,4.1185,4.1187,4.1274,0,4.1231,4.1273,4.1236,4.1285,4.1299,4.1245,4.1268,4.1258,4.1239,4.1249,4.1228,4.124,4.1196,4.1194,4.1215,4.1193,4.1238,4.1187,4.12,4.1201,4.1203,4.1329,4.1356,4.144,4.1285,4.1287,4.1288,0,4.1343,4.1342,4.1392,4.1368,4.1373,4.1394,4.1391,4.1402,4.139,4.1374,4.1373,4.1338,4.1362,4.1312,4.1344,4.131,4.1313,4.1304,4.1306,4.1304,4.1248,4.1329,4.1465,4.1477,4.1306,4.1304,4.1303,0,4.1445,4.1457,4.1487,4.1484,4.1458,4.1474,4.1464,4.1449,4.1452,4.1451,4.1452,4.1455,4.1455,4.1458,4.1424,4.1391,4.146,4.1407,4.1447,4.1448,4.1462,4.1462,4.16,4.1469,4.1468,4.1468,4.1468,0,4.155,4.1582,4.1532,4.1551,4.1585,4.1544,4.1579,4.1563,4.1551,4.1566,4.1521,4.1536,4.1491,4.1502,4.1476,4.1506,4.1507,4.1495,4.1487,4.1498,4.1499,4.1498,4.149,4.1471,4.1471,4.147,4.1469,0,4.1669,4.1637,4.1667,4.1639,4.1633,4.1659,4.1636,4.1652,4.163,4.165,4.1652,4.1618,4.1628,4.1595,4.16,4.1583,4.1625,4.1609,4.1629,4.1623,4.1664,4.166,4.1805,4.1821,4.1682,4.1683,4.1684,0,4.1737,4.176,4.1735,4.1741,4.1733,4.1744,4.1746,4.1707,4.1711,4.17,4.1717,4.1723,4.1726,4.1744,4.172,4.1723,4.1706,4.1757,4.1706,4.1715,4.1704,4.1703,4.1704,4.1766,4.1768,4.177,4.1771,0,4.186,4.1843,4.1848,4.1848,4.1852,4.185,4.1845,4.1853,4.181,4.1818,4.1826,4.1829,4.1833,4.1839,4.1838,4.1827,4.1792,4.1787,4.1796,4.1806,4.1816,4.1809,4.1655,4.1783,4.1782,4.1781,4.1781,4.178,4.1954,4.1972,4.1956,4.1963,4.1955,4.1951,4.1965,4.1944,4.1951,4.1951,4.1928,4.1941,4.1929,4.1922,4.1916,4.1926,4.1902,4.1916,4.1919,4.1923,4.1929,4.1816,4.1926,4.1926,4.1925,4.1925,4.1925,0,4.2073,4.2061,4.2068,4.2061,4.2067,4.2033,4.2026,4.2032,4.2045,4.2036,4.2039,4.2049,4.2055,4.2032,4.2034,4.2047,4.2031,4.2049,4.2046,4.2044,4.1951,4.1941,4.2062,4.2062,4.2062,4.2061,4.2061,4.2061,4.2136,4.2163,4.2144,4.2167,4.2154,4.2167,4.2165,4.2161,4.2154,4.2167,4.2171,4.2156,4.2141,4.2142,4.2146,4.2139,4.2141,4.2165,4.2152,4.2064,4.2051,4.2038,4.2029,4.2166,4.2166,4.2244,4.2245,4.2246]}]]